| time (UTC) | temp F | wind direction | speed MPH | gust MPH | rain 1hr in | rain 24hr in | rain mn in | humidity % | barometer mb |
| 20260509053329 | 67 | 14 | 3.0 | 12.0 | 0.00 | 0.00 | 0.00 | 89 | 950.5 |
| 20260509052828 | 67 | 19 | 3.0 | 12.0 | 0.00 | 0.00 | 0.00 | 89 | 950.2 |
| 20260509052327 | 68 | 18 | 3.0 | 12.0 | 0.00 | 0.00 | 0.00 | 89 | 950.1 |
| 20260509051826 | 68 | 19 | 4.0 | 12.0 | 0.00 | 0.00 | 0.00 | 88 | 950.1 |
| 20260509051325 | 68 | 27 | 4.0 | 12.0 | 0.00 | 0.00 | 0.00 | 88 | 950.1 |
| 20260509050824 | 68 | 24 | 3.0 | 12.0 | 0.00 | 0.00 | 0.00 | 88 | 950.2 |
| 20260509050323 | 68 | 18 | 3.0 | 12.0 | 0.00 | 0.00 | 0.00 | 87 | 950.1 |
| 20260509045822 | 68 | 15 | 4.0 | 12.0 | 0.00 | 0.00 | 0.00 | 88 | 950.4 |
| 20260509045321 | 68 | 15 | 4.0 | 12.0 | 0.00 | 0.00 | 0.00 | 88 | 950.1 |
| 20260509044820 | 68 | 23 | 4.0 | 12.0 | 0.00 | 0.00 | 0.00 | 88 | 949.8 |
| 20260509044319 | 68 | 16 | 3.0 | 12.0 | 0.00 | 0.00 | 0.00 | 88 | 949.8 |
| 20260509043818 | 68 | 18 | 3.0 | 12.0 | 0.00 | 0.00 | 0.00 | 87 | 949.6 |
| 20260509043317 | 68 | 22 | 3.0 | 12.0 | 0.00 | 0.00 | 0.00 | 87 | 949.7 |
| 20260509042816 | 68 | 16 | 3.0 | 12.0 | 0.00 | 0.00 | 0.00 | 87 | 949.6 |
| 20260509042315 | 68 | 25 | 4.0 | 12.0 | 0.00 | 0.00 | 0.00 | 87 | 949.8 |
| 20260509041814 | 68 | 22 | 3.0 | 12.0 | 0.00 | 0.00 | 0.00 | 87 | 949.6 |
| 20260509041313 | 69 | 18 | 4.0 | 12.0 | 0.00 | 0.00 | 0.00 | 86 | 949.5 |
| 20260509040812 | 69 | 21 | 4.0 | 12.0 | 0.00 | 0.00 | 0.00 | 85 | 949.2 |
| 20260509040311 | 69 | 19 | 3.0 | 12.0 | 0.00 | 0.00 | 0.00 | 84 | 949.9 |
| 20260509035810 | 70 | 20 | 3.0 | 12.0 | 0.00 | 0.00 | 0.00 | 84 | 949.1 |
| 20260509035309 | 70 | 21 | 3.0 | 12.0 | 0.00 | 0.00 | 0.00 | 84 | 949.4 |
| 20260509034808 | 70 | 20 | 4.0 | 12.0 | 0.00 | 0.00 | 0.00 | 84 | 949.5 |
| 20260509034307 | 70 | 20 | 3.0 | 12.0 | 0.00 | 0.00 | 0.00 | 84 | 949.2 |
| 20260509033806 | 70 | 26 | 3.0 | 12.0 | 0.00 | 0.00 | 0.00 | 84 | 948.9 |
| 20260509033305 | 71 | 28 | 4.0 | 12.0 | 0.00 | 0.00 | 0.00 | 84 | 949.2 |
| 20260509032804 | 71 | 17 | 3.0 | 12.0 | 0.00 | 0.00 | 0.00 | 84 | 949.1 |
| 20260509032306 | 70 | 21 | 3.0 | 12.0 | 0.00 | 0.00 | 0.00 | 86 | 949.0 |
| 20260509031802 | 70 | 26 | 4.0 | 12.0 | 0.00 | 0.00 | 0.00 | 86 | 948.9 |
| 20260509030746 | 70 | 31 | 6.0 | 12.0 | 0.00 | 0.00 | 0.00 | 85 | 949.1 |
| 20260509030244 | 70 | 24 | 5.0 | 12.0 | 0.00 | 0.00 | 0.00 | 86 | 948.8 |
| 20260509025743 | 70 | 19 | 3.0 | 12.0 | 0.00 | 0.00 | 0.00 | 86 | 948.7 |
| 20260509024726 | 71 | 45 | 6.0 | 12.0 | 0.00 | 0.00 | 0.00 | 86 | 948.8 |
| 20260509024225 | 71 | 14 | 3.0 | 12.0 | 0.00 | 0.00 | 0.00 | 86 | 948.8 |
| 20260509023724 | 72 | 34 | 5.0 | 12.0 | 0.00 | 0.00 | 0.00 | 86 | 948.8 |
| 20260509023223 | 71 | 38 | 4.0 | 12.0 | 0.00 | 0.00 | 0.00 | 87 | 948.8 |
| 20260509022206 | 71 | 35 | 4.0 | 12.0 | 0.00 | 0.00 | 0.00 | 88 | 948.6 |
| 20260509021705 | 71 | 24 | 5.0 | 12.0 | 0.00 | 0.00 | 0.00 | 88 | 948.7 |
| 20260509021204 | 71 | 34 | 6.0 | 12.0 | 0.00 | 0.00 | 0.00 | 86 | 948.8 |
| 20260509020704 | 72 | 40 | 6.0 | 12.0 | 0.00 | 0.00 | 0.00 | 84 | 948.9 |
| 20260509015130 | 73 | 37 | 4.0 | 12.0 | 0.00 | 0.00 | 0.00 | 84 | 948.9 |
| 20260509014628 | 73 | 44 | 3.0 | 12.0 | 0.00 | 0.00 | 0.00 | 84 | 948.9 |
| 20260509014127 | 74 | 43 | 4.0 | 12.0 | 0.00 | 0.00 | 0.00 | 82 | 949.2 |
| 20260509013111 | 75 | 60 | 4.0 | 12.0 | 0.00 | 0.00 | 0.00 | 79 | 948.9 |
| 20260509012609 | 75 | 61 | 4.0 | 12.0 | 0.00 | 0.00 | 0.00 | 82 | 948.8 |
| 20260509012108 | 75 | 63 | 4.0 | 12.0 | 0.00 | 0.00 | 0.00 | 81 | 948.8 |
| 20260509011607 | 75 | 34 | 4.0 | 12.0 | 0.00 | 0.00 | 0.00 | 81 | 949.1 |
| 20260509011107 | 75 | 36 | 4.0 | 12.0 | 0.00 | 0.00 | 0.00 | 81 | 948.8 |
| 20260509010605 | 75 | 40 | 4.0 | 12.0 | 0.00 | 0.00 | 0.00 | 81 | 948.5 |
| 20260509010105 | 75 | 37 | 4.0 | 12.0 | 0.00 | 0.00 | 0.00 | 83 | 948.7 |
| 20260509005603 | 75 | 41 | 5.0 | 12.0 | 0.00 | 0.00 | 0.00 | 82 | 948.8 |
| 20260509005103 | 75 | 43 | 5.0 | 12.0 | 0.00 | 0.00 | 0.00 | 81 | 948.9 |
| 20260509004044 | 74 | 33 | 3.0 | 12.0 | 0.00 | 0.00 | 0.00 | 83 | 948.6 |
| 20260509003544 | 74 | 33 | 5.0 | 12.0 | 0.00 | 0.00 | 0.00 | 82 | 949.1 |
| 20260509003042 | 75 | 37 | 4.0 | 12.0 | 0.00 | 0.00 | 0.00 | 81 | 949.1 |
| 20260509002542 | 75 | 35 | 5.0 | 12.0 | 0.00 | 0.00 | 0.00 | 80 | 949.0 |
| 20260509002040 | 75 | 43 | 4.0 | 12.0 | 0.00 | 0.00 | 0.00 | 81 | 949.4 |
| 20260509001540 | 75 | 34 | 5.0 | 12.0 | 0.00 | 0.00 | 0.00 | 81 | 949.1 |
| 20260509001038 | 75 | 20 | 3.0 | 12.0 | 0.00 | 0.00 | 0.00 | 82 | 949.1 |
| 20260509000537 | 75 | 28 | 5.0 | 12.0 | 0.00 | 0.00 | 0.00 | 81 | 949.3 |
| 20260509000036 | 75 | 56 | 4.0 | 12.0 | 0.00 | 0.00 | 0.00 | 81 | 949.1 |
| 20260508235535 | 74 | 42 | 5.0 | 12.0 | 0.00 | 0.00 | 0.00 | 81 | 949.3 |
| 20260508235034 | 75 | 44 | 4.0 | 12.0 | 0.00 | 0.00 | 0.00 | 80 | 949.6 |
| 20260508234532 | 75 | 39 | 5.0 | 12.0 | 0.00 | 0.00 | 0.00 | 80 | 949.4 |
| 20260508234032 | 75 | 32 | 5.0 | 11.0 | 0.00 | 0.00 | 0.00 | 81 | 949.6 |
| 20260508233531 | 74 | 40 | 4.0 | 11.0 | 0.00 | 0.00 | 0.00 | 81 | 949.6 |
| 20260508233030 | 75 | 52 | 4.0 | 11.0 | 0.00 | 0.00 | 0.00 | 81 | 949.6 |
| 20260508232013 | 75 | 40 | 5.0 | 11.0 | 0.00 | 0.00 | 0.00 | 81 | 949.8 |
| 20260508230956 | 75 | 44 | 6.0 | 11.0 | 0.00 | 0.00 | 0.00 | 81 | 949.9 |
| 20260508230454 | 76 | 63 | 5.0 | 11.0 | 0.00 | 0.00 | 0.00 | 79 | 949.9 |
| 20260508225438 | 76 | 54 | 4.0 | 11.0 | 0.00 | 0.00 | 0.00 | 79 | 949.9 |
| 20260508224937 | 75 | 45 | 4.0 | 11.0 | 0.00 | 0.00 | 0.00 | 81 | 950.1 |
| 20260508224436 | 75 | 53 | 4.0 | 11.0 | 0.00 | 0.00 | 0.00 | 81 | 950.1 |
| 20260508223935 | 75 | 71 | 5.0 | 11.0 | 0.00 | 0.00 | 0.00 | 81 | 950.3 |
| 20260508223434 | 75 | 59 | 5.0 | 11.0 | 0.00 | 0.00 | 0.00 | 80 | 950.4 |
| 20260508222932 | 74 | 72 | 5.0 | 11.0 | 0.00 | 0.00 | 0.00 | 81 | 950.1 |
| 20260508221915 | 73 | 31 | 4.0 | 11.0 | 0.00 | 0.00 | 0.00 | 83 | 950.7 |
| 20260508221414 | 73 | 31 | 4.0 | 11.0 | 0.00 | 0.00 | 0.00 | 83 | 950.4 |
| 20260508220913 | 73 | 22 | 4.0 | 11.0 | 0.00 | 0.00 | 0.00 | 83 | 950.5 |
| 20260508215856 | 73 | 36 | 4.0 | 11.0 | 0.00 | 0.00 | 0.00 | 83 | 950.3 |
| 20260508215355 | 74 | 34 | 4.0 | 11.0 | 0.00 | 0.00 | 0.00 | 83 | 950.2 |
| 20260508214854 | 74 | 59 | 5.0 | 11.0 | 0.00 | 0.00 | 0.00 | 82 | 950.6 |
| 20260508214353 | 74 | 51 | 5.0 | 11.0 | 0.00 | 0.00 | 0.00 | 82 | 950.6 |
| 20260508213852 | 75 | 50 | 4.0 | 11.0 | 0.00 | 0.00 | 0.00 | 82 | 950.4 |
| 20260508212835 | 75 | 68 | 4.0 | 11.0 | 0.00 | 0.00 | 0.00 | 86 | 950.7 |
| 20260508212334 | 74 | 70 | 4.0 | 11.0 | 0.00 | 0.00 | 0.00 | 84 | 951.0 |
| 20260508211833 | 75 | 72 | 5.0 | 11.0 | 0.00 | 0.00 | 0.00 | 83 | 950.8 |
| 20260508211332 | 75 | 69 | 4.0 | 11.0 | 0.00 | 0.00 | 0.00 | 84 | 950.5 |
| 20260508210831 | 75 | 67 | 4.0 | 11.0 | 0.00 | 0.00 | 0.00 | 82 | 951.0 |
| 20260508205814 | 73 | 51 | 3.0 | 11.0 | 0.00 | 0.00 | 0.00 | 86 | 951.1 |
| 20260508205313 | 73 | 48 | 3.0 | 11.0 | 0.00 | 0.00 | 0.00 | 87 | 951.1 |
| 20260508204812 | 73 | 42 | 3.0 | 11.0 | 0.00 | 0.00 | 0.00 | 86 | 950.8 |
| 20260508203755 | 73 | 36 | 3.0 | 11.0 | 0.00 | 0.00 | 0.00 | 86 | 951.3 |
| 20260508202738 | 75 | 42 | 2.0 | 11.0 | 0.00 | 0.00 | 0.00 | 86 | 951.5 |
| 20260508202236 | 74 | 28 | 3.0 | 11.0 | 0.00 | 0.00 | 0.00 | 84 | 951.4 |
| 20260508201735 | 74 | 37 | 5.0 | 14.0 | 0.00 | 0.00 | 0.00 | 84 | 951.3 |
| 20260508201234 | 74 | 36 | 6.0 | 14.0 | 0.00 | 0.00 | 0.00 | 83 | 951.1 |
| 20260508200733 | 74 | 36 | 5.0 | 14.0 | 0.00 | 0.00 | 0.00 | 82 | 951.5 |
| 20260508200232 | 74 | 52 | 2.0 | 14.0 | 0.00 | 0.00 | 0.00 | 84 | 951.3 |
| 20260508195731 | 74 | 34 | 3.0 | 14.0 | 0.00 | 0.00 | 0.00 | 82 | 951.4 |
| 20260508195230 | 73 | 35 | 4.0 | 14.0 | 0.00 | 0.00 | 0.00 | 84 | 951.5 |
| 20260508192625 | 70 | 35 | 3.0 | 14.0 | 0.00 | 0.00 | 0.00 | 87 | 951.3 |
| 20260508192123 | 70 | 69 | 2.0 | 14.0 | 0.00 | 0.00 | 0.00 | 89 | 951.5 |
| 20260508191622 | 70 | 52 | 2.0 | 14.0 | 0.00 | 0.00 | 0.00 | 91 | 951.7 |
| 20260508191120 | 70 | 48 | 2.0 | 14.0 | 0.00 | 0.00 | 0.00 | 90 | 951.6 |
| 20260508190619 | 70 | 53 | 2.0 | 14.0 | 0.00 | 0.00 | 0.00 | 90 | 951.3 |
| 20260508190118 | 70 | 45 | 3.0 | 14.0 | 0.00 | 0.00 | 0.00 | 89 | 951.7 |
| 20260508185617 | 70 | 90 | 2.0 | 14.0 | 0.00 | 0.00 | 0.00 | 89 | 951.6 |
| 20260508185116 | 70 | 77 | 4.0 | 14.0 | 0.00 | 0.00 | 0.00 | 87 | 951.6 |
| 20260508184615 | 71 | 66 | 3.0 | 14.0 | 0.00 | 0.00 | 0.00 | 87 | 951.6 |
| 20260508184114 | 71 | 42 | 3.0 | 14.0 | 0.00 | 0.00 | 0.00 | 88 | 951.6 |
| 20260508183613 | 71 | 57 | 2.0 | 14.0 | 0.00 | 0.00 | 0.00 | 89 | 951.8 |
| 20260508183112 | 70 | 43 | 2.0 | 14.0 | 0.00 | 0.00 | 0.00 | 90 | 951.6 |
| 20260508182055 | 69 | 30 | 3.0 | 14.0 | 0.00 | 0.00 | 0.00 | 90 | 951.7 |
| 20260508181554 | 69 | 36 | 3.0 | 14.0 | 0.00 | 0.00 | 0.00 | 92 | 951.6 |
| 20260508181053 | 69 | 32 | 4.0 | 14.0 | 0.00 | 0.00 | 0.00 | 93 | 951.2 |
| 20260508180552 | 68 | 34 | 4.0 | 14.0 | 0.00 | 0.00 | 0.00 | 93 | 951.1 |
| 20260508180051 | 68 | 34 | 4.0 | 14.0 | 0.00 | 0.00 | 0.00 | 93 | 951.4 |
| 20260508175033 | 68 | 30 | 2.0 | 14.0 | 0.00 | 0.00 | 0.00 | 93 | 951.0 |
| 20260508174016 | 68 | 35 | 3.0 | 14.0 | 0.00 | 0.00 | 0.00 | 92 | 951.0 |
| 20260508173515 | 68 | 40 | 2.0 | 14.0 | 0.00 | 0.00 | 0.00 | 93 | 951.2 |
| 20260508173014 | 68 | 33 | 3.0 | 14.0 | 0.00 | 0.00 | 0.00 | 92 | 950.6 |
| 20260508171957 | 68 | 40 | 4.0 | 14.0 | 0.00 | 0.00 | 0.00 | 91 | 950.8 |
| 20260508171456 | 68 | 40 | 1.0 | 14.0 | 0.00 | 0.00 | 0.00 | 93 | 950.7 |
| 20260508170439 | 67 | 33 | 4.0 | 14.0 | 0.00 | 0.00 | 0.00 | 92 | 950.7 |
| 20260508165937 | 67 | 31 | 4.0 | 14.0 | 0.00 | 0.00 | 0.00 | 92 | 950.7 |
| 20260508165436 | 67 | 35 | 4.0 | 14.0 | 0.00 | 0.00 | 0.00 | 92 | 950.8 |
| 20260508164935 | 66 | 39 | 2.0 | 14.0 | 0.00 | 0.00 | 0.00 | 93 | 950.5 |
| 20260508164434 | 66 | 36 | 2.0 | 14.0 | 0.00 | 0.00 | 0.00 | 94 | 950.8 |
| 20260508163933 | 66 | 37 | 1.0 | 14.0 | 0.00 | 0.00 | 0.00 | 95 | 950.6 |
| 20260508163431 | 65 | 27 | 2.0 | 14.0 | 0.00 | 0.00 | 0.00 | 95 | 950.6 |
| 20260508162930 | 65 | 25 | 2.0 | 14.0 | 0.00 | 0.00 | 0.00 | 95 | 950.3 |
| 20260508162428 | 64 | 25 | 2.0 | 14.0 | 0.00 | 0.00 | 0.00 | 95 | 950.5 |
| 20260508161927 | 64 | 28 | 2.0 | 14.0 | 0.00 | 0.00 | 0.00 | 95 | 950.4 |
| 20260508161426 | 64 | 31 | 2.0 | 14.0 | 0.00 | 0.00 | 0.00 | 94 | 950.1 |
| 20260508160409 | 63 | 36 | 0.0 | 14.0 | 0.00 | 0.00 | 0.00 | 93 | 950.3 |
| 20260508155908 | 63 | 36 | 0.0 | 14.0 | 0.00 | 0.00 | 0.00 | 93 | 950.3 |
| 20260508155407 | 64 | 32 | 2.0 | 14.0 | 0.00 | 0.00 | 0.00 | 93 | 950.2 |
| 20260508154905 | 64 | 54 | 2.0 | 14.0 | 0.00 | 0.00 | 0.00 | 93 | 950.1 |
| 20260508154404 | 64 | 37 | 2.0 | 14.0 | 0.00 | 0.00 | 0.00 | 93 | 950.3 |
| 20260508153903 | 64 | 26 | 3.0 | 14.0 | 0.00 | 0.00 | 0.00 | 93 | 950.3 |
| 20260508153402 | 64 | 22 | 2.0 | 14.0 | 0.00 | 0.00 | 0.00 | 93 | 950.1 |
| 20260508151828 | 64 | 5 | 1.0 | 14.0 | 0.00 | 0.00 | 0.00 | 92 | 950.1 |
| 20260508151327 | 64 | 12 | 0.0 | 14.0 | 0.00 | 0.00 | 0.00 | 93 | 950.1 |
| 20260508145238 | 62 | 29 | 3.0 | 14.0 | 0.00 | 0.00 | 0.00 | 92 | 950.0 |
| 20260508144736 | 62 | 26 | 2.0 | 14.0 | 0.00 | 0.00 | 0.00 | 93 | 949.8 |
| 20260508144235 | 62 | 19 | 2.0 | 14.0 | 0.00 | 0.00 | 0.00 | 94 | 949.7 |
| 20260508143734 | 61 | 28 | 3.0 | 14.0 | 0.00 | 0.00 | 0.00 | 94 | 949.8 |
| 20260508143233 | 61 | 32 | 2.0 | 14.0 | 0.00 | 0.00 | 0.00 | 93 | 949.6 |
| 20260508142732 | 61 | 27 | 3.0 | 14.0 | 0.00 | 0.00 | 0.00 | 93 | 949.8 |
| 20260508142231 | 61 | 48 | 0.0 | 14.0 | 0.00 | 0.00 | 0.00 | 92 | 949.5 |
| 20260508140657 | 60 | 8 | 0.0 | 14.0 | 0.00 | 0.00 | 0.00 | 92 | 949.9 |
| 20260508140156 | 60 | 8 | 0.0 | 14.0 | 0.00 | 0.00 | 0.00 | 91 | 949.6 |
| 20260508135655 | 61 | 8 | 0.0 | 14.0 | 0.00 | 0.00 | 0.00 | 91 | 950.1 |
| 20260508135154 | 61 | 8 | 0.0 | 14.0 | 0.00 | 0.00 | 0.00 | 91 | 949.7 |
| 20260508134653 | 61 | 8 | 0.0 | 14.0 | 0.00 | 0.00 | 0.00 | 92 | 949.8 |
| 20260508134152 | 61 | 8 | 0.0 | 14.0 | 0.00 | 0.00 | 0.00 | 91 | 949.9 |
| 20260508133651 | 61 | 8 | 0.0 | 14.0 | 0.00 | 0.00 | 0.00 | 91 | 949.8 |
| 20260508133150 | 62 | 7 | 0.0 | 14.0 | 0.00 | 0.00 | 0.00 | 90 | 949.7 |
| 20260508132133 | 64 | 12 | 0.0 | 14.0 | 0.00 | 0.00 | 0.00 | 90 | 949.8 |
| 20260508131631 | 64 | 339 | 1.0 | 14.0 | 0.00 | 0.00 | 0.00 | 87 | 950.0 |
| 20260508131130 | 65 | 212 | 0.0 | 14.0 | 0.00 | 0.00 | 0.00 | 85 | 949.7 |
| 20260508130629 | 65 | 296 | 2.0 | 14.0 | 0.00 | 0.00 | 0.00 | 85 | 949.9 |
| 20260508130128 | 65 | 21 | 2.0 | 14.0 | 0.00 | 0.00 | 0.00 | 86 | 949.5 |
| 20260508125627 | 65 | 25 | 3.0 | 14.0 | 0.00 | 0.00 | 0.00 | 88 | 949.6 |
| 20260508125126 | 64 | 11 | 3.0 | 14.0 | 0.00 | 0.00 | 0.00 | 88 | 949.7 |
| 20260508124625 | 64 | 16 | 4.0 | 14.0 | 0.00 | 0.00 | 0.00 | 89 | 949.8 |
| 20260508124124 | 64 | 20 | 4.0 | 14.0 | 0.00 | 0.00 | 0.00 | 89 | 949.5 |
| 20260508123622 | 64 | 22 | 4.0 | 14.0 | 0.00 | 0.00 | 0.00 | 90 | 949.5 |
| 20260508123121 | 64 | 25 | 4.0 | 14.0 | 0.00 | 0.00 | 0.00 | 88 | 949.7 |
| 20260508122620 | 65 | 25 | 3.0 | 14.0 | 0.00 | 0.00 | 0.00 | 86 | 949.7 |
| 20260508122119 | 65 | 14 | 3.0 | 14.0 | 0.00 | 0.00 | 0.00 | 85 | 949.7 |
| 20260508121619 | 65 | 12 | 2.0 | 14.0 | 0.00 | 0.00 | 0.00 | 86 | 949.8 |
| 20260508121117 | 65 | 8 | 2.0 | 14.0 | 0.00 | 0.00 | 0.00 | 88 | 950.1 |
| 20260508120616 | 64 | 7 | 3.0 | 14.0 | 0.00 | 0.00 | 0.00 | 90 | 950.2 |
| 20260508115042 | 64 | 26 | 3.0 | 14.0 | 0.00 | 0.00 | 0.00 | 91 | 950.1 |
| 20260508114542 | 64 | 23 | 4.0 | 14.0 | 0.00 | 0.00 | 0.00 | 91 | 950.1 |
| 20260508114040 | 64 | 20 | 4.0 | 14.0 | 0.00 | 0.00 | 0.00 | 91 | 950.2 |
| 20260508113539 | 64 | 28 | 4.0 | 14.0 | 0.00 | 0.00 | 0.00 | 90 | 950.4 |
| 20260508113039 | 64 | 27 | 4.0 | 14.0 | 0.00 | 0.00 | 0.00 | 89 | 950.4 |
| 20260508112022 | 64 | 19 | 4.0 | 14.0 | 0.00 | 0.00 | 0.00 | 90 | 950.3 |
| 20260508111521 | 64 | 25 | 4.0 | 14.0 | 0.00 | 0.00 | 0.00 | 90 | 950.5 |
| 20260508111018 | 64 | 23 | 3.0 | 14.0 | 0.00 | 0.00 | 0.00 | 90 | 950.4 |
| 20260508110517 | 64 | 25 | 3.0 | 14.0 | 0.00 | 0.00 | 0.00 | 90 | 950.8 |
| 20260508110017 | 64 | 23 | 3.0 | 14.0 | 0.00 | 0.00 | 0.00 | 90 | 950.7 |
| 20260508105000 | 63 | 22 | 4.0 | 14.0 | 0.00 | 0.00 | 0.00 | 90 | 950.6 |
| 20260508104458 | 63 | 28 | 4.0 | 14.0 | 0.00 | 0.00 | 0.00 | 90 | 950.8 |
| 20260508103958 | 64 | 30 | 4.0 | 14.0 | 0.00 | 0.00 | 0.00 | 91 | 950.8 |
| 20260508103456 | 64 | 26 | 4.0 | 14.0 | 0.00 | 0.00 | 0.00 | 91 | 951.4 |
| 20260508102954 | 64 | 32 | 4.0 | 14.0 | 0.00 | 0.00 | 0.00 | 90 | 951.0 |
| 20260508102453 | 64 | 30 | 4.0 | 14.0 | 0.00 | 0.00 | 0.00 | 90 | 951.2 |
| 20260508101953 | 64 | 32 | 4.0 | 14.0 | 0.00 | 0.00 | 0.00 | 89 | 951.1 |
| 20260508101451 | 64 | 28 | 4.0 | 14.0 | 0.00 | 0.00 | 0.00 | 90 | 951.3 |
| 20260508100951 | 64 | 32 | 4.0 | 14.0 | 0.00 | 0.00 | 0.00 | 90 | 951.6 |
| 20260508100448 | 64 | 35 | 4.0 | 14.0 | 0.00 | 0.00 | 0.00 | 90 | 951.6 |
| 20260508095948 | 64 | 23 | 3.0 | 14.0 | 0.00 | 0.00 | 0.00 | 90 | 951.5 |
| 20260508094931 | 64 | 20 | 4.0 | 14.0 | 0.00 | 0.00 | 0.00 | 90 | 951.6 |
| 20260508093357 | 64 | 21 | 4.0 | 14.0 | 0.00 | 0.00 | 0.00 | 90 | 951.9 |
| 20260508092856 | 64 | 21 | 4.0 | 14.0 | 0.00 | 0.00 | 0.00 | 90 | 951.8 |
| 20260508092354 | 64 | 23 | 4.0 | 14.0 | 0.00 | 0.00 | 0.00 | 90 | 951.7 |
| 20260508091853 | 65 | 30 | 5.0 | 14.0 | 0.00 | 0.00 | 0.00 | 90 | 951.5 |
| 20260508091353 | 65 | 27 | 4.0 | 14.0 | 0.00 | 0.00 | 0.00 | 90 | 952.0 |
| 20260508090852 | 64 | 18 | 3.0 | 14.0 | 0.00 | 0.00 | 0.00 | 90 | 951.8 |
| 20260508090349 | 64 | 21 | 3.0 | 14.0 | 0.00 | 0.00 | 0.00 | 91 | 951.8 |
| 20260508085847 | 64 | 22 | 4.0 | 14.0 | 0.00 | 0.00 | 0.00 | 90 | 952.0 |
| 20260508085346 | 65 | 30 | 4.0 | 14.0 | 0.00 | 0.00 | 0.00 | 90 | 951.8 |
| 20260508084329 | 64 | 22 | 3.0 | 14.0 | 0.00 | 0.00 | 0.00 | 90 | 951.7 |
| 20260508083828 | 64 | 28 | 4.0 | 14.0 | 0.00 | 0.00 | 0.00 | 90 | 952.1 |
| 20260508083327 | 64 | 31 | 5.0 | 14.0 | 0.00 | 0.00 | 0.00 | 90 | 952.0 |
| 20260508082825 | 65 | 34 | 6.0 | 14.0 | 0.00 | 0.00 | 0.00 | 90 | 952.0 |
| 20260508082325 | 65 | 32 | 5.0 | 14.0 | 0.00 | 0.00 | 0.00 | 90 | 951.9 |
| 20260508081824 | 65 | 24 | 4.0 | 14.0 | 0.00 | 0.00 | 0.00 | 90 | 951.8 |
| 20260508081323 | 65 | 22 | 4.0 | 14.0 | 0.00 | 0.00 | 0.00 | 90 | 951.9 |
| 20260508080822 | 65 | 29 | 5.0 | 14.0 | 0.00 | 0.00 | 0.00 | 90 | 952.2 |
| 20260508080321 | 65 | 28 | 6.0 | 14.0 | 0.00 | 0.00 | 0.00 | 90 | 951.8 |
| 20260508075820 | 65 | 32 | 5.0 | 14.0 | 0.00 | 0.00 | 0.00 | 90 | 952.1 |
| 20260508075319 | 65 | 38 | 5.0 | 14.0 | 0.00 | 0.00 | 0.00 | 90 | 952.0 |
| 20260508074818 | 65 | 34 | 5.0 | 14.0 | 0.00 | 0.00 | 0.00 | 90 | 952.0 |
| 20260508074317 | 65 | 30 | 4.0 | 14.0 | 0.00 | 0.00 | 0.00 | 90 | 951.8 |
| 20260508073816 | 65 | 32 | 5.0 | 14.0 | 0.00 | 0.00 | 0.00 | 90 | 952.1 |
| 20260508072759 | 64 | 32 | 5.0 | 14.0 | 0.00 | 0.00 | 0.00 | 90 | 951.9 |
| 20260508072258 | 64 | 34 | 5.0 | 14.0 | 0.00 | 0.00 | 0.00 | 90 | 951.9 |
| 20260508071757 | 65 | 31 | 5.0 | 14.0 | 0.00 | 0.00 | 0.00 | 90 | 951.5 |
| 20260508071256 | 65 | 34 | 5.0 | 14.0 | 0.00 | 0.00 | 0.00 | 90 | 951.8 |
| 20260508070239 | 64 | 42 | 6.0 | 14.0 | 0.00 | 0.00 | 0.00 | 90 | 951.7 |
| 20260508065738 | 64 | 39 | 6.0 | 14.0 | 0.00 | 0.00 | 0.00 | 90 | 951.7 |
| 20260508065237 | 64 | 41 | 5.0 | 14.0 | 0.00 | 0.00 | 0.00 | 89 | 951.8 |
| 20260508064736 | 64 | 41 | 4.0 | 14.0 | 0.00 | 0.00 | 0.00 | 89 | 951.9 |
| 20260508064235 | 64 | 38 | 5.0 | 14.0 | 0.00 | 0.00 | 0.00 | 89 | 951.6 |
| 20260508062702 | 64 | 36 | 5.0 | 14.0 | 0.00 | 0.00 | 0.00 | 88 | 951.4 |
| 20260508062201 | 64 | 35 | 5.0 | 14.0 | 0.00 | 0.00 | 0.00 | 88 | 951.5 |
| 20260508061700 | 64 | 32 | 6.0 | 14.0 | 0.00 | 0.00 | 0.00 | 89 | 951.4 |
| 20260508061159 | 64 | 38 | 4.0 | 14.0 | 0.00 | 0.00 | 0.00 | 89 | 951.3 |
| 20260508060658 | 64 | 31 | 5.0 | 14.0 | 0.00 | 0.00 | 0.00 | 89 | 951.1 |
| 20260508060157 | 64 | 35 | 5.0 | 14.0 | 0.00 | 0.00 | 0.00 | 89 | 951.1 |
| 20260508055656 | 64 | 31 | 7.0 | 14.0 | 0.00 | 0.00 | 0.00 | 89 | 951.0 |
| 20260508055155 | 64 | 34 | 6.0 | 14.0 | 0.00 | 0.00 | 0.00 | 89 | 951.0 |
| 20260508054653 | 65 | 27 | 4.0 | 14.0 | 0.00 | 0.00 | 0.00 | 88 | 950.9 |
| 20260508054152 | 64 | 25 | 5.0 | 14.0 | 0.00 | 0.00 | 0.00 | 88 | 950.8 |
| 20260508053651 | 64 | 32 | 5.0 | 14.0 | 0.00 | 0.00 | 0.00 | 87 | 951.0 |